ニート彗星

C/2006 K4 ( NEAT )

English version
Home page
Updated on March 5, 2011

---------------------------------------------------------------------

・ プロフィール

発見日 2006年5月18日
発見光度 19.9等
発見者 Near-Earth-Asteroid Tracking Team (Jet Propulsion Laboratory)

・ 写真集

・ 軌道要素

Epoch 2007 Dec. 6.0 TT = JDT 2454440.5
T 2007 Nov. 29.33531 TT                                 MPC
q   3.1885473            (2000.0)            P               Q
z  +0.0006527      Peri.  233.61411     +0.00366294     -0.55356316
 +/-0.000000       Node   116.60348     -0.30877048     +0.79148439
e   0.9979189      Incl.  111.34427     -0.95112953     -0.25907584
From 430 observations 2006 May 18-2009 Nov. 20, mean residual 0".5.

・ 星図

・ 光度変化

        m1 = 9.0 + 5 logΔ + 8.0 log r(t + 80)

---------------------------------------------------------------------

軌道要素はM.P.E.C. 2011-D06に掲載されたものです。
星図は StellaNavigator Ver.2.0 for Windows (アストロアーツ 編著 / アスキー出版局刊) で作成したものです。
光度グラフはComet for Windowsで作成したものです。

---------------------------------------------------------------------

Copyright(C) Seiichi Yoshida (comet@aerith.net). All rights reserved.